| time (UTC) | temp F | wind direction | speed MPH | gust MPH | rain 1hr in | rain 24hr in | rain mn in | humidity % | barometer mb |
| 20260507123558 | 27 | 320 | 0.0 | 0.0 | 0.00 | 0.00 | 0.00 | 85 | 1011.2 |
| 20260507122524 | 26 | 320 | 0.0 | 0.0 | 0.00 | 0.00 | 0.00 | 85 | 1011.3 |
| 20260507120408 | 25 | 321 | 0.0 | 0.0 | 0.00 | 0.00 | 0.00 | 85 | 1011.2 |
| 20260507114230 | 25 | 321 | 0.0 | 0.0 | 0.00 | 0.00 | 0.00 | 86 | 1011.3 |
| 20260507113201 | 25 | 321 | 0.0 | 0.0 | 0.00 | 0.00 | 0.00 | 84 | 1011.3 |
| 20260507110959 | 26 | 320 | 0.0 | 2.0 | 0.00 | 0.00 | 0.00 | 80 | 1011.3 |
| 20260507105924 | 26 | 321 | 0.0 | 2.0 | 0.00 | 0.00 | 0.00 | 79 | 1011.2 |
| 20260507104912 | 27 | 320 | 0.0 | 0.0 | 0.00 | 0.00 | 0.00 | 78 | 1011.2 |
| 20260507102716 | 27 | 321 | 0.0 | 0.0 | 0.00 | 0.00 | 0.00 | 76 | 1011.1 |
| 20260507101642 | 27 | 321 | 0.0 | 2.0 | 0.00 | 0.00 | 0.00 | 77 | 1011.2 |
| 20260507100627 | 27 | 321 | 0.0 | 3.0 | 0.00 | 0.00 | 0.00 | 78 | 1011.2 |
| 20260507095638 | 27 | 320 | 2.0 | 3.0 | 0.00 | 0.00 | 0.00 | 78 | 1011.3 |
| 20260507094643 | 27 | 321 | 2.0 | 3.0 | 0.00 | 0.00 | 0.00 | 79 | 1011.3 |
| 20260507093622 | 27 | 320 | 2.0 | 3.0 | 0.00 | 0.00 | 0.00 | 79 | 1011.4 |
| 20260507092641 | 27 | 321 | 2.0 | 3.0 | 0.00 | 0.00 | 0.00 | 79 | 1011.5 |
| 20260507091642 | 27 | 321 | 2.0 | 3.0 | 0.00 | 0.00 | 0.00 | 80 | 1011.4 |
| 20260507085545 | 27 | 321 | 2.0 | 4.0 | 0.00 | 0.00 | 0.00 | 80 | 1011.4 |
| 20260507084542 | 28 | 313 | 2.0 | 3.0 | 0.00 | 0.00 | 0.00 | 80 | 1011.3 |
| 20260507083548 | 28 | 315 | 2.0 | 4.0 | 0.00 | 0.00 | 0.00 | 81 | 1011.2 |
| 20260507082536 | 27 | 315 | 2.0 | 4.0 | 0.00 | 0.00 | 0.00 | 80 | 1011.3 |
| 20260507081559 | 28 | 314 | 2.0 | 4.0 | 0.00 | 0.00 | 0.00 | 79 | 1011.3 |
| 20260507080536 | 29 | 113 | 2.0 | 4.0 | 0.00 | 0.00 | 0.00 | 75 | 1011.2 |
| 20260507075510 | 30 | 113 | 2.0 | 4.0 | 0.00 | 0.00 | 0.00 | 74 | 1011.3 |
| 20260507074446 | 32 | 113 | 0.0 | 1.0 | 0.00 | 0.00 | 0.00 | 67 | 1011.2 |
| 20260507073500 | 32 | 113 | 1.0 | 3.0 | 0.00 | 0.00 | 0.00 | 65 | 1011.1 |
| 20260507070203 | 33 | 113 | 2.0 | 3.0 | 0.00 | 0.00 | 0.00 | 63 | 1011.1 |
| 20260507065147 | 34 | 113 | 2.0 | 3.0 | 0.00 | 0.00 | 0.00 | 61 | 1011.0 |
| 20260507064122 | 34 | 113 | 2.0 | 4.0 | 0.00 | 0.00 | 0.00 | 60 | 1011.1 |
| 20260507062034 | 34 | 113 | 2.0 | 4.0 | 0.00 | 0.00 | 0.00 | 60 | 1011.1 |
| 20260507061047 | 35 | 113 | 2.0 | 4.0 | 0.00 | 0.00 | 0.00 | 60 | 1011.0 |
| 20260507060054 | 35 | 113 | 3.0 | 6.0 | 0.00 | 0.00 | 0.00 | 59 | 1011.0 |
| 20260507055042 | 35 | 113 | 4.0 | 7.0 | 0.00 | 0.00 | 0.00 | 58 | 1011.0 |
| 20260507054052 | 36 | 115 | 5.0 | 7.0 | 0.00 | 0.00 | 0.00 | 57 | 1011.0 |
| 20260507051936 | 36 | 101 | 5.0 | 6.0 | 0.00 | 0.00 | 0.00 | 57 | 1011.0 |
| 20260507050958 | 37 | 101 | 4.0 | 6.0 | 0.00 | 0.00 | 0.00 | 56 | 1011.0 |
| 20260507050016 | 37 | 102 | 2.0 | 4.0 | 0.00 | 0.00 | 0.00 | 55 | 1011.0 |
| 20260507045008 | 37 | 102 | 3.0 | 5.0 | 0.00 | 0.00 | 0.00 | 55 | 1010.9 |
| 20260507044022 | 37 | 102 | 3.0 | 5.0 | 0.00 | 0.00 | 0.00 | 54 | 1011.0 |
| 20260507041915 | 38 | 88 | 4.0 | 6.0 | 0.00 | 0.00 | 0.00 | 52 | 1011.0 |
| 20260507040905 | 39 | 88 | 4.0 | 6.0 | 0.00 | 0.00 | 0.00 | 52 | 1011.1 |
| 20260507032418 | 40 | 77 | 4.0 | 7.0 | 0.00 | 0.00 | 0.00 | 51 | 1011.4 |
| 20260507031409 | 41 | 84 | 3.0 | 7.0 | 0.00 | 0.00 | 0.00 | 51 | 1011.4 |
| 20260507030342 | 41 | 60 | 3.0 | 4.0 | 0.00 | 0.00 | 0.00 | 46 | 1011.4 |
| 20260507025329 | 42 | 38 | 2.0 | 4.0 | 0.00 | 0.00 | 0.00 | 43 | 1011.4 |
| 20260507024311 | 43 | 27 | 2.0 | 4.0 | 0.00 | 0.00 | 0.00 | 42 | 1011.3 |
| 20260507023253 | 44 | 23 | 3.0 | 4.0 | 0.00 | 0.00 | 0.00 | 41 | 1011.3 |
| 20260507022234 | 45 | 22 | 3.0 | 4.0 | 0.00 | 0.00 | 0.00 | 38 | 1011.3 |
| 20260507021256 | 47 | 20 | 3.0 | 4.0 | 0.00 | 0.00 | 0.00 | 38 | 1011.3 |
| 20260507014000 | 50 | 0 | 5.0 | 7.0 | 0.00 | 0.00 | 0.00 | 32 | 1011.4 |
| 20260507013000 | 51 | 30 | 4.0 | 9.0 | 0.00 | 0.00 | 0.00 | 31 | 1011.4 |
| 20260507011917 | 51 | 348 | 5.0 | 10.0 | 0.00 | 0.00 | 0.00 | 28 | 1011.3 |
| 20260507005911 | 52 | 351 | 8.0 | 14.0 | 0.00 | 0.00 | 0.00 | 28 | 1011.4 |
| 20260507004923 | 52 | 336 | 7.0 | 14.0 | 0.00 | 0.00 | 0.00 | 25 | 1011.4 |
| 20260507003917 | 53 | 343 | 7.0 | 13.0 | 0.00 | 0.00 | 0.00 | 24 | 1011.5 |
| 20260507001722 | 53 | 296 | 5.0 | 18.0 | 0.00 | 0.00 | 0.00 | 24 | 1011.5 |
| 20260506235515 | 53 | 291 | 11.0 | 17.0 | 0.00 | 0.00 | 0.00 | 23 | 1011.8 |
| 20260506234453 | 53 | 294 | 7.0 | 14.0 | 0.00 | 0.00 | 0.00 | 22 | 1011.9 |
| 20260506233453 | 53 | 332 | 8.0 | 18.0 | 0.00 | 0.00 | 0.00 | 22 | 1011.9 |
| 20260506232437 | 53 | 261 | 9.0 | 18.0 | 0.00 | 0.00 | 0.00 | 22 | 1011.9 |
| 20260506231424 | 53 | 294 | 10.0 | 21.0 | 0.00 | 0.00 | 0.00 | 23 | 1012.1 |
| 20260506224124 | 52 | 305 | 8.0 | 19.0 | 0.00 | 0.00 | 0.00 | 25 | 1012.2 |
| 20260506223112 | 52 | 0 | 10.0 | 19.0 | 0.00 | 0.00 | 0.00 | 27 | 1012.3 |
| 20260506222120 | 51 | 322 | 11.0 | 18.0 | 0.00 | 0.00 | 0.00 | 28 | 1012.4 |
| 20260506215913 | 51 | 298 | 7.0 | 19.0 | 0.00 | 0.00 | 0.00 | 29 | 1012.7 |
| 20260506214848 | 51 | 277 | 8.0 | 19.0 | 0.00 | 0.00 | 0.00 | 29 | 1012.8 |
| 20260506213858 | 52 | 291 | 5.0 | 14.0 | 0.00 | 0.00 | 0.00 | 30 | 1013.0 |
| 20260506212825 | 52 | 0 | 6.0 | 14.0 | 0.00 | 0.00 | 0.00 | 31 | 1013.2 |
| 20260506211805 | 51 | 0 | 5.0 | 10.0 | 0.00 | 0.00 | 0.00 | 30 | 1013.3 |
| 20260506210803 | 50 | 0 | 5.0 | 12.0 | 0.00 | 0.00 | 0.00 | 32 | 1013.5 |
| 20260506205750 | 50 | 10 | 4.0 | 15.0 | 0.00 | 0.00 | 0.00 | 32 | 1013.8 |
| 20260506202514 | 50 | 327 | 3.0 | 13.0 | 0.00 | 0.00 | 0.00 | 32 | 1014.2 |
| 20260506201531 | 49 | 307 | 7.0 | 13.0 | 0.00 | 0.00 | 0.00 | 33 | 1014.5 |
| 20260506200527 | 50 | 307 | 6.0 | 13.0 | 0.00 | 0.00 | 0.00 | 33 | 1014.5 |
| 20260506195457 | 50 | 296 | 5.0 | 13.0 | 0.00 | 0.00 | 0.00 | 32 | 1014.7 |
| 20260506194425 | 49 | 275 | 6.0 | 15.0 | 0.00 | 0.00 | 0.00 | 33 | 1014.8 |
| 20260506193402 | 48 | 346 | 5.0 | 16.0 | 0.00 | 0.00 | 0.00 | 35 | 1014.9 |
| 20260506192401 | 48 | 316 | 7.0 | 16.0 | 0.00 | 0.00 | 0.00 | 34 | 1015.1 |
| 20260506191359 | 48 | 290 | 7.0 | 15.0 | 0.00 | 0.00 | 0.00 | 33 | 1015.2 |
| 20260506190416 | 48 | 235 | 4.0 | 27.0 | 0.00 | 0.00 | 0.00 | 36 | 1015.4 |
| 20260506185345 | 48 | 273 | 8.0 | 27.0 | 0.00 | 0.00 | 0.00 | 37 | 1015.5 |
| 20260506184356 | 47 | 277 | 6.0 | 13.0 | 0.00 | 0.00 | 0.00 | 38 | 1015.6 |
| 20260506183400 | 47 | 200 | 6.0 | 14.0 | 0.00 | 0.00 | 0.00 | 40 | 1015.9 |
| 20260506182416 | 47 | 271 | 7.0 | 14.0 | 0.00 | 0.00 | 0.00 | 41 | 1016.2 |
| 20260506181408 | 46 | 312 | 9.0 | 13.0 | 0.00 | 0.00 | 0.00 | 41 | 1016.3 |
| 20260506180400 | 46 | 314 | 4.0 | 15.0 | 0.00 | 0.00 | 0.00 | 41 | 1016.4 |
| 20260506175354 | 46 | 12 | 7.0 | 18.0 | 0.00 | 0.00 | 0.00 | 43 | 1016.5 |
| 20260506173151 | 44 | 241 | 7.0 | 14.0 | 0.00 | 0.00 | 0.00 | 44 | 1016.7 |
| 20260506172131 | 44 | 310 | 6.0 | 19.0 | 0.00 | 0.00 | 0.00 | 46 | 1017.0 |
| 20260506171125 | 43 | 298 | 9.0 | 19.0 | 0.00 | 0.00 | 0.00 | 46 | 1017.2 |
| 20260506170053 | 43 | 309 | 10.0 | 17.0 | 0.00 | 0.00 | 0.00 | 48 | 1017.3 |
| 20260506165103 | 43 | 309 | 9.0 | 15.0 | 0.00 | 0.00 | 0.00 | 48 | 1017.4 |
| 20260506164053 | 42 | 303 | 10.0 | 16.0 | 0.00 | 0.00 | 0.00 | 49 | 1017.6 |
| 20260506163056 | 41 | 273 | 8.0 | 16.0 | 0.00 | 0.00 | 0.00 | 51 | 1017.7 |
| 20260506162039 | 42 | 290 | 9.0 | 15.0 | 0.00 | 0.00 | 0.00 | 50 | 1017.9 |
| 20260506154642 | 40 | 345 | 9.0 | 15.0 | 0.00 | 0.00 | 0.00 | 54 | 1018.1 |
| 20260506153650 | 40 | 306 | 10.0 | 15.0 | 0.00 | 0.00 | 0.00 | 55 | 1018.2 |
| 20260506152638 | 40 | 302 | 8.0 | 17.0 | 0.00 | 0.00 | 0.00 | 56 | 1018.2 |
| 20260506150439 | 38 | 301 | 9.0 | 15.0 | 0.00 | 0.00 | 0.00 | 57 | 1018.4 |
| 20260506145402 | 38 | 297 | 8.0 | 13.0 | 0.00 | 0.00 | 0.00 | 58 | 1018.6 |
| 20260506144424 | 38 | 347 | 7.0 | 13.0 | 0.00 | 0.00 | 0.00 | 59 | 1018.6 |
| 20260506141151 | 36 | 317 | 6.0 | 9.0 | 0.00 | 0.00 | 0.00 | 66 | 1018.9 |
| 20260506135002 | 33 | 286 | 5.0 | 9.0 | 0.00 | 0.00 | 0.00 | 71 | 1019.0 |
| 20260506133918 | 31 | 306 | 5.0 | 8.0 | 0.00 | 0.00 | 0.00 | 74 | 1019.0 |
| 20260506132922 | 30 | 324 | 4.0 | 8.0 | 0.00 | 0.00 | 0.00 | 77 | 1019.1 |
| 20260506131859 | 28 | 315 | 5.0 | 8.0 | 0.00 | 0.00 | 0.00 | 79 | 1019.0 |
| 20260506130844 | 27 | 292 | 5.0 | 7.0 | 0.00 | 0.00 | 0.00 | 80 | 1019.1 |
| 20260506125859 | 26 | 0 | 5.0 | 8.0 | 0.00 | 0.00 | 0.00 | 81 | 1019.0 |